Location: New York
(40.7127°N, 74.0060°W)
Time: 09:44:13
(UTC-04:00)

AO-7 - Visible Passes

Search period start: 13 April 2024 00:00
Search period end: 23 April 2024 00:00
Orbit: 1440 x 1458 km, 102.0° (Epoch: 12 April)

Date Brightness Start Highest point End Pass type
(mag) Time Alt. Az. Time Alt. Az. Time Alt. Az.
13 Apr ? 04:45:24 10° NE 04:50:42 18° E 04:55:58 10° SE visible
14 Apr ? 05:36:28 10° NNE 05:44:14 41° E 05:51:54 10° SSE visible
15 Apr ? 04:38:49 10° NE 04:43:29 16° E 04:48:06 10° SE visible
16 Apr ? 05:29:31 10° NNE 05:37:04 37° E 05:44:32 10° SSE visible
17 Apr ? 04:32:25 10° ENE 04:36:15 14° E 04:40:03 10° ESE visible
18 Apr ? 05:22:34 10° NE 05:29:55 33° E 05:37:09 10° SSE visible
19 Apr ? 04:26:20 10° ENE 04:29:00 12° E 04:31:40 10° ESE visible
20 Apr ? 05:15:41 10° NE 05:22:44 30° E 05:29:42 10° SSE visible
22 Apr ? 05:08:49 10° NE 05:15:33 27° E 05:22:13 10° SSE visible
